QPF
0.00 0.00 0.00 0.00 0.00 0.00 0.00 0.00 0.00 0.00 0.00 0.00 0.00 0.00 0.01 0.01 0.02 0.00 0.00 0.01 0.00 0.00 0.00 0.01 0.00 0.00 0.00 0.00 0.00 0.00 0.00 0.00 0.00 0.00 0.00 0.00 0.00 0.00 0.00 0.00 0.00 0.00 0.00
0.00 0.00 0.00 0.00 0.00 0.00 0.00 0.00 0.00 0.00 0.00 0.00 0.00 0.00 0.00 0.00 0.01 0.00 0.00 0.00 0.01 0.00 0.00 0.00 0.00 0.00 0.00 0.00 0.00 0.00 0.00 0.00 0.00 0.00 0.00 0.00 0.00 0.00 0.00 0.00 0.00 0.00 0.00
0.00 0.00 0.00 0.00 0.00 0.00 0.00 0.00 0.00 0.00 0.00 0.00 0.00 0.00 0.00 0.00 0.00 0.00 0.00 0.00 0.00 0.00 0.00 0.00 0.00 0.00 0.00 0.00 0.00 0.00 0.00 0.00 0.00 0.00 0.00 0.00 0.00 0.00 0.00 0.00 0.00 0.00 0.00
0.00 0.00 0.00 0.00 0.00 0.00 0.00 0.00 0.00 0.00 0.00 0.00 0.00 0.00 0.00 0.00 0.00 0.00 0.00 0.00 0.00 0.00 0.00 0.00 0.00 0.00 0.00 0.00 0.00 0.00 0.00 0.00 0.00 0.00 0.00 0.00 0.00 0.00 0.00 0.00 0.00 0.00 0.00
0.00 0.00 0.00 0.00 0.00 0.00 0.00 0.00 0.00 0.00 0.00 0.00 0.00 0.00 0.00 0.00 0.00 0.00 0.00 0.00 0.00 0.00 0.00 0.00 0.00 0.00 0.00 0.00 0.00 0.00 0.00 0.00 0.00 0.00 0.00 0.00 0.00 0.00 0.00 0.00 0.00 0.00 0.00
0.00 0.00 0.00 0.00 0.00 0.00 0.00 0.00 0.00 0.00 0.00 0.00 0.00 0.00 0.00 0.00 0.00 0.00 0.00 0.00 0.00 0.00 0.00 0.00 0.00 0.00 0.00 0.00 0.00 0.00 0.00 0.00 0.00 0.00 0.00 0.00 0.00 0.00 0.00 0.00 0.00 0.00 0.00
0.00 0.00 0.00 0.00 0.00 0.00 0.00 0.00 0.00 0.00 0.00 0.00 0.00 0.00 0.00 0.00 0.00 0.00 0.00 0.00 0.00 0.00 0.00 0.00 0.00 0.00 0.00 0.00 0.00 0.00 0.00 0.00 0.00 0.00 0.00 0.00 0.00 0.00 0.00 0.00 0.00 0.00 0.00
0.00 0.00 0.00 0.00 0.00 0.00 0.00 0.00 0.00 0.00 0.00 0.00 0.00 0.00 0.00 0.00 0.00 0.00 0.00 0.00 0.00 0.00 0.00 0.00 0.00 0.00 0.00 0.00 0.00 0.00 0.00 0.00 0.00 0.00 0.00 0.00 0.00 0.00 0.00 0.00 0.00 0.00 0.00
0.00 0.00 0.00 0.00 0.00 0.00 0.00 0.00 0.00 0.00 0.00 0.00 0.00 0.00 0.00 0.00 0.00 0.00 0.00 0.00 0.00 0.00 0.00 0.00 0.00 0.00 0.00 0.00 0.00 0.00 0.00 0.00 0.00 0.00 0.00 0.00 0.00 0.00 0.00 0.00 0.00 0.00 0.00
0.00 0.00 0.00 0.00 0.00 0.00 0.00 0.00 0.00 0.00 0.00 0.00 0.00 0.00 0.00 0.00 0.00 0.00 0.00 0.00 0.00 0.00 0.00 0.00 0.00 0.00 0.00 0.00 0.00 0.00 0.00 0.00 0.00 0.00 0.00 0.00 0.00 0.00 0.00 0.00 0.00 0.00 0.00
0.00 0.00 0.00 0.00 0.00 0.00 0.00 0.00 0.00 0.00 0.00 0.00 0.00 0.00 0.00 0.00 0.00 0.00 0.00 0.00 0.00 0.00 0.00 0.00 0.00 0.00 0.00 0.00 0.00 0.00 0.00 0.00 0.00 0.00 0.00 0.00 0.00 0.00 0.00 0.00 0.00 0.00 0.00
0.00 0.00 0.00 0.00 0.00 0.00 0.00 0.00 0.00 0.00 0.00 0.00 0.00 0.00 0.00 0.00 0.00 0.00 0.00 0.00 0.00 0.00 0.00 0.00 0.00 0.00 0.00 0.00 0.00 0.00 0.00 0.00 0.00 0.00 0.00 0.00 0.00 0.00 0.00 0.00 0.00 0.00 0.00
0.00 0.00 0.00 0.00 0.00 0.00 0.00 0.00 0.00 0.00 0.00 0.00 0.00 0.00 0.00 0.00 0.00 0.00 0.00 0.00 0.00 0.00 0.00 0.00 0.00 0.00 0.00 0.00 0.00 0.00 0.00 0.00 0.00 0.00 0.00 0.00 0.00 0.00 0.00 0.00 0.00 0.00 0.00
0.00 0.00 0.00 0.00 0.00 0.00 0.00 0.00 0.00 0.00 0.00 0.00 0.00 0.00 0.00 0.00 0.00 0.00 0.00 0.00 0.00 0.00 0.00 0.00 0.00 0.00 0.00 0.00 0.00 0.00 0.00 0.00 0.00 0.00 0.00 0.00 0.00 0.00 0.00 0.00 0.00 0.00 0.00
0.00 0.00 0.00 0.00 0.00 0.00 0.00 0.00 0.00 0.00 0.00 0.00 0.00 0.00 0.00 0.00 0.00 0.00 0.00 0.00 0.00 0.00 0.00 0.00 0.00 0.00 0.00 0.00 0.00 0.00 0.00 0.00 0.00 0.00 0.00 0.00 0.00 0.00 0.00 0.00 0.00 0.00 0.00
0.00 0.00 0.00 0.00 0.00 0.00 0.00 0.00 0.00 0.00 0.00 0.00 0.00 0.00 0.00 0.00 0.00 0.00 0.00 0.00 0.00 0.00 0.00 0.00 0.00 0.00 0.00 0.00 0.00 0.00 0.00 0.00 0.00 0.00 0.00 0.00 0.00 0.00 0.00 0.00 0.00 0.00 0.00
0.00 0.00 0.00 0.00 0.00 0.00 0.00 0.00 0.00 0.00 0.00 0.00 0.00 0.00 0.00 0.00 0.00 0.00 0.00 0.00 0.00 0.00 0.00 0.00 0.00 0.00 0.00 0.00 0.00 0.00 0.00 0.00 0.00 0.00 0.00 0.00 0.00 0.00 0.00 0.00 0.00 0.00 0.00
0.00 0.00 0.00 0.00 0.00 0.00 0.00 0.00 0.00 0.00 0.00 0.00 0.00 0.00 0.00 0.00 0.00 0.00 0.00 0.00 0.00 0.00 0.00 0.00 0.00 0.00 0.00 0.00 0.00 0.00 0.00 0.00 0.00 0.00 0.00 0.00 0.00 0.00 0.00 0.00 0.00 0.00 0.00
0.00 0.00 0.00 0.00 0.00 0.00 0.00 0.00 0.00 0.00 0.00 0.00 0.00 0.00 0.00 0.00 0.00 0.00 0.00 0.00 0.00 0.00 0.00 0.00 0.00 0.00 0.00 0.00 0.00 0.00 0.00 0.00 0.00 0.00 0.00 0.00 0.00 0.00 0.00 0.00 0.00 0.00 0.00
0.00 0.00 0.00 0.00 0.00 0.00 0.00 0.00 0.00 0.00 0.00 0.00 0.00 0.00 0.00 0.00 0.00 0.00 0.00 0.00 0.00 0.00 0.00 0.00 0.00 0.00 0.00 0.00 0.00 0.00 0.00 0.00 0.00 0.00 0.00 0.00 0.00 0.00 0.00 0.00 0.00 0.00 0.00
0.00 0.00 0.00 0.00 0.00 0.00 0.00 0.00 0.00 0.00 0.00 0.00 0.00 0.00 0.00 0.00 0.00 0.00 0.00 0.00 0.00 0.00 0.00 0.00 0.00 0.00 0.00 0.00 0.00 0.00 0.00 0.00 0.00 0.00 0.00 0.00 0.00 0.00 0.00 0.00 0.00 0.00 0.00
0.00 0.00 0.00 0.00 0.00 0.00 0.00 0.00 0.00 0.00 0.00 0.00 0.00 0.00 0.00 0.00 0.00 0.00 0.00 0.00 0.00 0.00 0.00 0.00 0.00 0.00 0.00 0.00 0.00 0.00 0.00 0.00 0.00 0.00 0.00 0.00 0.00 0.00 0.00 0.00 0.00 0.00 0.00
0.00 0.00 0.00 0.00 0.00 0.00 0.00 0.00 0.00 0.00 0.00 0.00 0.00 0.00 0.00 0.00 0.00 0.00 0.00 0.00 0.00 0.00 0.00 0.00 0.00 0.00 0.00 0.00 0.00 0.00 0.00 0.00 0.00 0.00 0.00 0.00 0.00 0.00 0.00 0.00 0.00 0.00 0.00
0.00 0.00 0.00 0.00 0.00 0.00 0.00 0.00 0.00 0.00 0.00 0.00 0.00 0.00 0.00 0.00 0.00 0.00 0.00 0.00 0.00 0.00 0.00 0.00 0.00 0.00 0.00 0.00 0.00 0.00 0.00 0.00 0.00 0.00 0.00 0.00 0.00 0.00 0.00 0.00 0.00 0.00 0.00
0.00 0.00 0.00 0.00 0.00 0.00 0.00 0.00 0.00 0.00 0.00 0.00 0.00 0.00 0.00 0.00 0.00 0.00 0.00 0.00 0.00 0.00 0.00 0.00 0.00 0.00 0.00 0.00 0.00 0.00 0.00 0.00 0.00 0.00 0.00 0.00 0.00 0.00 0.00 0.00 0.00 0.00 0.00
0.00 0.00 0.00 0.00 0.00 0.00 0.00 0.00 0.00 0.00 0.00 0.00 0.00 0.00 0.00 0.00 0.00 0.00 0.00 0.00 0.00 0.00 0.00 0.00 0.00 0.00 0.00 0.00 0.00 0.00 0.00 0.00 0.00 0.00 0.00 0.00 0.00 0.00 0.00 0.00 0.00 0.00 0.00
MSLP
1024.77 1024.25 1023.68 1023.56 1023.30 1022.83 1022.47 1022.08 1021.75 1021.30 1020.90 1020.66 1020.25 1019.85 1019.48 1019.31 1019.45 1019.62 1019.99 1020.35 1020.42 1020.75 1020.83 1021.00 1021.41 1021.58 1021.88 1022.04 1022.18 1022.47 1022.92 1023.08 1023.46 1024.74 1025.30 1025.44 1025.87 1025.87 1025.82 1025.70 1025.62 1025.31 1024.81
1025.09 1024.21 1024.11 1023.68 1023.67 1023.29 1023.00 1022.69 1022.15 1021.78 1021.36 1021.01 1020.64 1020.34 1020.16 1020.09 1020.23 1020.26 1020.51 1021.11 1021.22 1021.47 1021.46 1021.77 1022.07 1021.76 1022.68 1022.73 1022.98 1023.39 1023.74 1023.75 1023.92 1024.88 1025.68 1026.00 1026.18 1026.37 1026.26 1025.92 1025.99 1025.54 1025.30
1025.08 1024.71 1024.34 1024.23 1023.84 1023.67 1023.39 1023.00 1022.51 1022.08 1021.73 1021.30 1021.02 1021.07 1020.85 1020.84 1020.75 1021.06 1021.51 1021.85 1022.19 1022.27 1022.33 1022.84 1022.91 1023.02 1022.73 1023.34 1023.72 1024.25 1024.56 1024.73 1024.83 1025.46 1026.59 1026.73 1026.68 1026.80 1026.70 1026.38 1026.08 1025.99 1025.32
1025.42 1025.03 1024.74 1024.49 1024.26 1024.02 1023.52 1023.23 1022.82 1022.46 1022.17 1022.02 1021.77 1021.59 1021.76 1021.69 1021.97 1022.16 1022.40 1022.72 1023.31 1023.48 1023.54 1023.51 1023.62 1023.85 1023.90 1024.05 1024.63 1025.35 1025.49 1025.66 1026.00 1026.57 1027.15 1027.54 1027.83 1027.48 1027.19 1027.32 1027.13 1026.55 1026.18
1025.54 1025.34 1025.18 1024.98 1024.77 1024.60 1024.01 1023.76 1023.43 1023.27 1022.96 1022.59 1022.50 1022.62 1022.49 1022.57 1022.74 1022.80 1023.08 1023.54 1023.87 1024.53 1024.54 1024.73 1024.54 1024.95 1024.71 1024.74 1025.39 1026.00 1025.87 1026.63 1026.96 1027.33 1027.82 1028.32 1028.52 1028.17 1028.33 1028.51 1027.74 1027.16 1026.99
1026.12 1026.01 1025.75 1025.23 1024.96 1024.98 1024.72 1024.56 1024.04 1023.93 1023.69 1023.34 1023.37 1023.35 1023.64 1023.70 1023.57 1023.53 1024.04 1024.37 1024.76 1025.14 1025.46 1025.84 1025.87 1026.02 1025.88 1025.76 1025.83 1026.31 1026.44 1027.26 1027.86 1027.61 1028.43 1028.86 1029.25 1029.20 1029.06 1028.83 1028.50 1028.08 1028.07
1026.08 1025.81 1025.83 1025.83 1025.80 1025.57 1025.12 1024.83 1024.82 1024.67 1024.48 1024.46 1024.38 1024.35 1024.42 1024.44 1024.47 1024.52 1024.84 1025.06 1025.28 1025.72 1026.15 1026.40 1026.65 1027.02 1026.81 1026.48 1026.77 1027.01 1027.57 1028.01 1027.80 1028.16 1028.89 1029.36 1029.46 1029.34 1029.26 1029.07 1028.99 1029.11 1029.25
1026.32 1026.18 1026.19 1026.19 1026.16 1026.03 1025.86 1025.92 1025.92 1025.72 1025.52 1025.30 1025.15 1025.04 1025.09 1025.29 1025.23 1025.15 1025.21 1025.70 1026.14 1026.50 1026.80 1026.91 1027.00 1027.40 1027.53 1027.75 1027.75 1028.22 1028.28 1028.66 1028.66 1029.08 1029.62 1029.82 1029.53 1029.50 1029.56 1029.39 1029.31 1029.46 1029.62
1026.27 1026.32 1026.47 1026.61 1026.70 1026.74 1026.75 1026.74 1026.70 1026.50 1026.29 1026.12 1026.13 1026.11 1026.01 1026.01 1025.98 1026.01 1025.97 1026.56 1027.04 1027.27 1027.47 1027.60 1027.60 1027.80 1027.84 1028.02 1028.27 1028.57 1028.98 1029.21 1029.36 1029.74 1029.95 1029.87 1029.71 1029.57 1029.44 1029.44 1029.53 1029.71 1030.20
1026.39 1026.32 1026.35 1026.43 1026.63 1026.74 1026.94 1027.04 1027.00 1026.89 1027.02 1026.95 1026.79 1026.79 1026.56 1026.44 1026.42 1026.65 1026.71 1027.03 1027.33 1027.61 1027.83 1027.90 1028.13 1028.21 1028.24 1028.43 1028.68 1029.02 1029.53 1030.02 1030.20 1030.48 1030.48 1030.31 1030.19 1029.99 1029.91 1029.99 1029.97 1030.09 1030.20
1026.57 1026.51 1026.41 1026.36 1026.46 1026.57 1026.85 1027.03 1027.11 1027.20 1027.35 1027.29 1027.17 1027.31 1027.21 1027.08 1026.92 1027.06 1027.31 1027.65 1027.89 1028.15 1028.42 1028.63 1028.57 1028.32 1028.54 1028.60 1028.86 1029.35 1029.72 1030.36 1030.49 1030.86 1030.86 1030.64 1030.46 1030.37 1030.56 1030.50 1030.26 1030.08 1030.39
1026.72 1026.93 1026.92 1026.76 1026.66 1026.82 1027.13 1027.34 1027.47 1027.65 1027.84 1027.93 1027.94 1028.09 1028.05 1027.92 1027.36 1027.25 1027.41 1027.76 1028.03 1028.48 1028.94 1028.97 1028.79 1028.85 1028.80 1028.93 1029.37 1029.54 1030.14 1030.74 1031.04 1031.21 1031.20 1031.21 1031.16 1031.24 1031.40 1031.35 1031.04 1030.88 1030.92
1026.96 1027.30 1027.42 1027.42 1027.29 1027.20 1027.38 1027.70 1028.01 1027.96 1028.04 1028.20 1028.40 1028.67 1028.64 1028.44 1028.13 1027.45 1027.51 1027.83 1028.20 1028.86 1029.34 1029.08 1029.00 1029.15 1029.33 1029.60 1029.97 1030.40 1030.95 1031.17 1031.28 1031.47 1031.69 1031.84 1031.99 1032.08 1031.65 1031.65 1031.59 1031.43 1031.42
1026.66 1027.28 1027.42 1027.64 1027.76 1027.69 1027.63 1027.71 1027.85 1028.12 1028.20 1028.15 1028.37 1028.65 1028.76 1028.75 1028.51 1028.59 1028.41 1028.51 1028.50 1029.04 1029.06 1029.78 1029.90 1030.34 1030.55 1030.99 1030.92 1031.06 1031.06 1031.05 1031.15 1031.49 1031.88 1032.32 1032.64 1032.71 1032.71 1032.76 1032.64 1032.74 1032.30
1025.88 1026.39 1026.85 1027.16 1027.48 1027.59 1027.48 1027.40 1027.35 1027.43 1027.42 1027.75 1028.06 1028.26 1028.60 1028.61 1028.39 1028.28 1028.51 1028.87 1029.14 1029.53 1030.47 1030.94 1031.43 1031.81 1032.16 1032.18 1031.66 1031.26 1030.96 1031.02 1031.21 1031.59 1032.19 1032.68 1032.96 1033.04 1033.31 1033.50 1033.34 1033.14 1033.47
1025.74 1026.06 1026.25 1026.49 1026.69 1026.99 1027.32 1027.24 1026.81 1026.69 1026.72 1026.61 1026.68 1027.12 1027.75 1027.47 1027.40 1027.55 1027.93 1028.37 1028.85 1029.26 1030.73 1031.75 1032.18 1032.27 1032.15 1031.86 1031.41 1031.24 1031.12 1031.12 1031.33 1031.79 1032.36 1032.70 1033.01 1033.27 1033.50 1033.68 1033.65 1033.87 1034.19
1023.79 1024.48 1025.39 1025.87 1026.15 1026.36 1026.59 1026.70 1026.63 1026.33 1026.03 1026.03 1026.05 1026.28 1026.58 1026.96 1026.90 1027.03 1027.42 1027.86 1028.31 1028.83 1030.12 1030.94 1031.30 1031.43 1031.38 1031.40 1030.98 1030.66 1030.69 1030.69 1030.75 1031.57 1032.08 1032.50 1032.83 1033.24 1033.52 1034.09 1034.23 1034.50 1034.79
1022.52 1022.77 1023.19 1024.04 1024.71 1025.20 1025.54 1025.69 1025.89 1026.10 1025.93 1025.80 1025.64 1025.58 1025.64 1025.97 1026.16 1026.39 1026.83 1027.29 1027.82 1027.90 1029.01 1029.93 1030.15 1030.40 1030.61 1030.64 1030.76 1030.49 1030.49 1030.62 1030.80 1031.23 1031.67 1032.04 1032.27 1032.52 1033.26 1033.77 1033.97 1034.49 1034.76
1020.77 1021.37 1021.83 1022.39 1023.01 1023.66 1024.28 1024.73 1024.94 1025.20 1025.33 1025.41 1026.04 1026.25 1025.84 1025.52 1025.87 1026.10 1026.41 1026.78 1027.18 1027.43 1027.93 1028.88 1029.00 1029.39 1029.71 1029.90 1029.97 1029.99 1030.00 1030.23 1030.44 1030.88 1031.23 1031.62 1031.91 1031.96 1032.75 1033.12 1033.47 1033.78 1034.06
1019.92 1020.33 1020.45 1020.88 1021.81 1022.56 1023.19 1023.78 1024.12 1024.30 1024.51 1024.75 1024.94 1024.80 1025.39 1025.98 1025.40 1025.36 1025.54 1025.77 1026.42 1026.74 1027.17 1027.61 1027.86 1028.23 1028.50 1028.79 1029.11 1029.44 1029.83 1030.19 1030.52 1030.78 1030.99 1031.27 1031.50 1031.58 1032.00 1032.56 1033.01 1033.52 1033.84
1018.18 1018.70 1019.51 1020.34 1020.46 1020.59 1021.24 1021.84 1022.36 1022.96 1023.09 1023.20 1023.08 1023.45 1024.08 1024.38 1024.22 1024.22 1024.42 1024.66 1025.01 1025.26 1025.62 1026.14 1026.56 1026.92 1027.28 1027.67 1028.08 1028.46 1028.78 1029.10 1029.43 1029.81 1030.20 1030.47 1030.79 1031.26 1031.42 1031.81 1032.32 1032.69 1033.09
1017.02 1017.61 1018.17 1018.81 1019.38 1019.73 1019.80 1020.22 1020.80 1021.06 1021.30 1021.58 1021.70 1022.12 1022.53 1023.13 1023.08 1023.12 1023.22 1023.34 1023.46 1023.70 1023.95 1024.55 1025.07 1025.40 1025.82 1026.12 1026.51 1026.99 1027.42 1027.87 1028.43 1028.84 1029.22 1029.63 1030.05 1030.49 1030.86 1031.41 1031.93 1032.37 1032.75
1016.01 1016.48 1017.08 1017.44 1017.96 1018.50 1018.89 1019.07 1019.39 1019.74 1019.93 1020.12 1020.46 1020.95 1021.41 1021.53 1021.66 1021.71 1021.74 1021.87 1022.23 1022.55 1022.83 1023.25 1023.63 1024.16 1024.51 1024.93 1025.37 1025.68 1025.99 1026.15 1026.52 1027.33 1028.01 1028.54 1029.09 1029.67 1030.15 1030.59 1031.04 1031.71 1032.17
1015.11 1015.29 1015.77 1016.33 1016.81 1017.24 1017.56 1017.49 1017.79 1018.38 1018.65 1018.83 1019.15 1019.42 1019.82 1019.89 1020.16 1020.20 1020.37 1020.67 1020.92 1021.19 1021.54 1021.97 1022.04 1022.31 1022.98 1023.63 1024.12 1024.48 1024.75 1025.15 1025.71 1026.36 1026.80 1027.38 1027.86 1028.44 1029.04 1029.60 1030.12 1030.63 1031.12
1014.55 1014.80 1015.02 1015.32 1015.50 1015.98 1016.44 1016.61 1016.42 1016.39 1017.04 1017.49 1017.78 1018.00 1018.18 1018.52 1018.60 1018.71 1018.90 1019.32 1019.73 1020.07 1020.28 1020.68 1020.93 1021.18 1021.55 1022.01 1022.57 1023.16 1023.68 1024.21 1024.67 1025.28 1026.03 1026.45 1026.90 1027.45 1028.09 1028.61 1029.13 1029.78 1030.35
1014.16 1014.27 1014.43 1014.64 1014.64 1015.00 1015.37 1015.54 1015.76 1015.76 1015.84 1016.16 1016.45 1016.69 1017.09 1017.36 1017.45 1017.68 1017.84 1018.16 1018.50 1018.65 1019.00 1019.47 1019.70 1020.00 1020.45 1020.90 1021.36 1022.00 1022.65 1023.24 1023.83 1024.38 1025.04 1025.69 1026.30 1026.75 1027.28 1027.79 1028.28 1028.80 1029.26
Thickness
5487 5493 5500 5502 5507 5513 5519 5524 5527 5532 5538 5541 5547 5553 5558 5561 5562 5561 5560 5558 5561 5558 5559 5558 5554 5552 5550 5549 5544 5539 5535 5532 5535 5516 5508 5505 5502 5500 5498 5497 5497 5498 5500
5481 5490 5492 5497 5498 5503 5507 5511 5517 5522 5527 5532 5538 5542 5546 5548 5548 5549 5550 5544 5546 5546 5547 5546 5542 5545 5538 5534 5531 5526 5520 5520 5522 5513 5503 5499 5497 5494 5494 5496 5492 5493 5493
5480 5483 5486 5488 5493 5495 5499 5504 5510 5515 5520 5525 5529 5531 5534 5536 5537 5537 5534 5532 5530 5531 5532 5529 5529 5529 5531 5524 5519 5512 5508 5507 5506 5502 5491 5489 5490 5489 5488 5488 5489 5488 5489
5476 5480 5482 5484 5486 5490 5495 5499 5503 5507 5512 5514 5518 5522 5521 5523 5521 5521 5520 5519 5514 5514 5514 5514 5515 5513 5512 5511 5505 5499 5498 5495 5492 5489 5484 5481 5478 5481 5481 5478 5477 5481 5480
5476 5477 5477 5478 5480 5482 5488 5492 5495 5497 5501 5506 5508 5507 5509 5510 5509 5509 5507 5504 5502 5496 5496 5496 5500 5497 5501 5499 5494 5489 5491 5485 5481 5480 5477 5472 5469 5472 5469 5466 5469 5471 5469
5468 5470 5471 5476 5478 5477 5480 5482 5488 5490 5493 5497 5497 5498 5496 5496 5497 5497 5492 5489 5486 5483 5482 5480 5482 5484 5485 5487 5488 5484 5485 5476 5472 5475 5469 5466 5462 5460 5460 5460 5461 5460 5454
5466 5470 5470 5469 5469 5472 5476 5480 5481 5482 5483 5483 5484 5485 5484 5485 5484 5482 5478 5474 5472 5470 5469 5470 5471 5471 5476 5481 5478 5476 5471 5466 5471 5469 5463 5460 5457 5457 5455 5454 5452 5450 5444
5464 5467 5467 5466 5466 5468 5469 5469 5469 5471 5471 5472 5474 5475 5475 5473 5473 5471 5465 5456 5454 5455 5459 5462 5465 5464 5466 5467 5468 5465 5466 5463 5463 5459 5454 5452 5453 5451 5449 5447 5446 5442 5439
5467 5467 5466 5464 5463 5462 5462 5462 5462 5464 5466 5466 5465 5465 5466 5466 5463 5459 5455 5449 5446 5447 5450 5453 5457 5458 5460 5461 5462 5462 5459 5457 5455 5450 5447 5447 5448 5446 5445 5442 5438 5432 5423
5469 5470 5469 5468 5466 5464 5462 5461 5461 5461 5460 5460 5460 5460 5461 5460 5458 5452 5452 5450 5448 5447 5450 5451 5451 5454 5456 5457 5458 5457 5451 5449 5447 5443 5442 5442 5441 5440 5437 5434 5430 5423 5416
5471 5472 5473 5473 5470 5468 5465 5463 5461 5460 5458 5458 5459 5456 5455 5454 5453 5450 5449 5449 5449 5448 5448 5449 5451 5454 5454 5455 5455 5452 5449 5445 5442 5438 5437 5436 5435 5433 5430 5426 5422 5418 5408
5475 5472 5471 5472 5473 5471 5467 5464 5463 5460 5457 5456 5456 5453 5452 5454 5454 5455 5454 5452 5451 5451 5448 5449 5450 5450 5452 5452 5450 5447 5443 5439 5435 5433 5432 5430 5427 5424 5421 5416 5412 5408 5402
5475 5472 5471 5469 5469 5470 5468 5465 5462 5461 5459 5456 5455 5454 5454 5454 5456 5458 5457 5455 5454 5451 5449 5448 5448 5448 5448 5446 5443 5439 5435 5432 5430 5427 5425 5423 5418 5416 5414 5409 5404 5399 5393
5480 5474 5472 5470 5468 5466 5468 5467 5464 5461 5458 5459 5456 5455 5452 5455 5455 5457 5456 5455 5453 5450 5448 5446 5444 5442 5440 5437 5434 5432 5430 5428 5425 5422 5418 5413 5411 5406 5402 5399 5393 5387 5380
5487 5481 5477 5474 5471 5468 5468 5468 5467 5467 5465 5461 5459 5458 5453 5451 5455 5457 5455 5452 5450 5448 5444 5439 5433 5430 5426 5427 5427 5427 5425 5422 5420 5416 5407 5402 5399 5395 5391 5388 5381 5375 5366
5486 5482 5480 5477 5474 5471 5468 5465 5468 5468 5468 5468 5468 5465 5461 5461 5461 5459 5455 5451 5447 5444 5436 5429 5425 5423 5423 5423 5424 5422 5420 5417 5413 5408 5400 5395 5391 5386 5381 5376 5372 5363 5356
5497 5490 5481 5476 5473 5471 5468 5466 5467 5466 5468 5468 5468 5466 5464 5462 5460 5458 5454 5450 5445 5441 5431 5425 5425 5423 5423 5419 5420 5419 5416 5411 5407 5402 5394 5388 5383 5377 5372 5364 5359 5352 5346
5495 5493 5491 5484 5477 5473 5470 5468 5464 5462 5463 5464 5465 5465 5463 5460 5458 5455 5451 5447 5442 5442 5433 5427 5425 5422 5418 5417 5412 5411 5407 5403 5398 5394 5387 5381 5377 5373 5365 5358 5352 5343 5336
5499 5495 5491 5487 5481 5476 5470 5466 5464 5461 5458 5455 5450 5454 5455 5453 5451 5448 5445 5440 5438 5439 5433 5423 5422 5418 5414 5411 5407 5404 5400 5395 5389 5383 5377 5373 5369 5366 5356 5350 5343 5336 5331
5491 5488 5488 5484 5477 5471 5467 5463 5460 5459 5456 5454 5451 5454 5448 5443 5446 5444 5442 5440 5433 5430 5425 5422 5418 5415 5411 5406 5401 5396 5388 5382 5376 5372 5368 5364 5359 5355 5349 5340 5333 5327 5321
5490 5485 5476 5470 5472 5473 5468 5462 5460 5455 5455 5454 5455 5451 5445 5442 5442 5441 5439 5436 5432 5428 5424 5418 5414 5410 5406 5401 5396 5390 5384 5379 5372 5367 5361 5356 5350 5343 5338 5332 5325 5317 5311
5483 5477 5472 5467 5461 5458 5461 5459 5455 5452 5452 5451 5450 5444 5440 5434 5435 5434 5433 5431 5429 5425 5421 5415 5411 5406 5402 5397 5391 5385 5379 5372 5365 5359 5353 5348 5341 5335 5329 5320 5314 5306 5301
5475 5471 5465 5461 5455 5451 5447 5446 5444 5442 5442 5441 5438 5434 5429 5430 5429 5428 5427 5425 5421 5418 5415 5411 5406 5401 5395 5389 5383 5377 5371 5367 5361 5354 5346 5339 5332 5325 5318 5312 5307 5299 5293
5465 5463 5458 5452 5447 5444 5441 5441 5438 5432 5430 5430 5429 5427 5423 5424 5423 5421 5419 5417 5414 5411 5407 5404 5401 5396 5388 5381 5373 5367 5361 5356 5350 5343 5337 5331 5324 5318 5311 5302 5297 5291 5286
5451 5449 5447 5444 5442 5437 5433 5431 5431 5429 5424 5421 5418 5415 5414 5413 5416 5413 5411 5408 5404 5400 5397 5393 5390 5386 5380 5375 5368 5361 5353 5346 5340 5332 5325 5320 5313 5307 5300 5294 5288 5281 5275
5437 5437 5436 5433 5432 5429 5425 5423 5419 5418 5416 5413 5411 5411 5410 5408 5408 5404 5403 5400 5397 5394 5390 5385 5382 5378 5371 5366 5360 5352 5344 5336 5329 5322 5315 5308 5300 5295 5289 5285 5280 5274 5270